map of CKS home
Great Circle Mapper logo
CKS - Airport
Location
City:  Carajás, Pará, Brazil
Near (Alt.):Parauapebas
ICAO / IATA:SBCJ / CKS

Details
Type:Airport (Aerodrome, Airfield)
Latitude:6°07'04"S (-6.117805)
Longitude:50°00'12"W (-50.003471)
Datum:WGS 1984
Elevation:2038 ft (621 m)
Runways:1
Longest:6562 × 148 ft (2000 × 45 m), paved

Time
Time Zone:UTC-3
Local Time:

Weather
METAR:SBCJ 312130Z 00000KT 9999 FEW008 22/20 Q1015
TAF:SBCJ 311000Z 3113/3124 04005KT 5000 BR BKN005 TN24/3112Z TX30/311 7Z
BECMG 3113/3115 9999 SCT025
BECMG 3117/3119 04002KT FEW020 FEW025TCU
BECMG 3121/3123 00000KT
RMK PDY

Related Locations
Nearby:
Farthest:MXI: 12187 mi / 19613 km
Mati [Imelda Romualdez Marcos], Mindanao Island, PH

Find:

   beyond  
but within

Other Information
Maps:
NOTAMs:
Links:
Sources:

  
flag of Brazil
flag of Pará
  

Sectional Chart

Flight Planning
at skyvector.com

Satellite Image

Google Maps Satellite View

 

Copyright © 2004-2014 Karl L. Swartz. All rights reserved.
The Great Circle Mapper name and logo are trademarks of the Great Circle Mapper.
All other trademarks mentioned herein belong to their respective owners.
Please see credits for attibutions and further copyright information.

  Follow gcmap on Facebook Follow gcmap on Twitter

hCard Microformat

Geo Microformat